• In Hungary
  • List of Countries
  • For 7 days
  • Water Temperature
  • Satellite Maps
  • Weather Map
  • News
  • Weather Widgets
  • user-avatar
    Login

    Hourly Weather Dżambi

    Today, 19 August, Saturday

    Time Temperature Precipitation Wind Pressure Humidity
    00:00 +25°C° 0.1 mm 1 mps 757 mmHg 97%
    01:00 +25°C° 0 mm 1 mps 757 mmHg 97%
    02:00 +25°C° 0 mm 1 mps 756 mmHg 97%
    03:00 +25°C° 0 mm 1 mps 756 mmHg 98%
    04:00 +25°C° 0 mm 1 mps 756 mmHg 98%
    05:00 +25°C° 0.1 mm 1 mps 756 mmHg 98%
    06:00 +25°C° 0.1 mm 1 mps 756 mmHg 97%
    07:00 +25°C° 0 mm 1 mps 757 mmHg 96%
    08:00 +27°C° 0 mm 1 mps 757 mmHg 91%
    09:00 +28°C° 0 mm 1 mps 757 mmHg 85%
    10:00 +29°C° 0 mm 2 mps 757 mmHg 80%
    11:00 +30°C° 0.8 mm 2 mps 756 mmHg 76%
    12:00 +31°C° 0.8 mm 2 mps 756 mmHg 73%
    13:00 +32°C° 0.8 mm 1 mps 755 mmHg 69%
    14:00 +32°C° 1.7 mm 1 mps 754 mmHg 71%
    15:00 +32°C° 1.7 mm 1 mps 754 mmHg 72%
    16:00 +32°C° 1.7 mm 1 mps 754 mmHg 74%
    17:00 +30°C° 0.9 mm 1 mps 754 mmHg 80%
    18:00 +29°C° 0.9 mm 1 mps 754 mmHg 86%
    19:00 +27°C° 0.9 mm 1 mps 755 mmHg 91%
    20:00 +27°C° 0 mm 1 mps 755 mmHg 93%
    21:00 +26°C° 0 mm 1 mps 756 mmHg 94%
    22:00 +26°C° 0 mm 1 mps 756 mmHg 95%
    23:00 +26°C° 0 mm 1 mps 756 mmHg 95%

    Tomorrow, 20 August, Sunday

    Time Temperature Precipitation Wind Pressure Humidity
    00:00 +26°C° 0 mm 1 mps 756 mmHg 96%
    01:00 +26°C° 0 mm 1 mps 756 mmHg 96%
    02:00 +25°C° 0.1 mm 1 mps 756 mmHg 97%
    03:00 +25°C° 0.1 mm 1 mps 755 mmHg 97%
    04:00 +25°C° 0.1 mm 1 mps 755 mmHg 98%
    05:00 +25°C° 0 mm 1 mps 756 mmHg 97%
    06:00 +26°C° 0 mm 1 mps 756 mmHg 97%
    07:00 +26°C° 0 mm 1 mps 756 mmHg 96%
    08:00 +28°C° 0 mm 1 mps 756 mmHg 86%
    09:00 +30°C° 0 mm 1 mps 756 mmHg 77%
    10:00 +32°C° 0 mm 2 mps 757 mmHg 67%
    11:00 +34°C° 0.1 mm 2 mps 756 mmHg 62%
    12:00 +35°C° 0.1 mm 2 mps 755 mmHg 57%
    13:00 +36°C° 0.1 mm 2 mps 754 mmHg 51%
    14:00 +36°C° 0.4 mm 2 mps 754 mmHg 54%
    15:00 +34°C° 0.4 mm 1 mps 753 mmHg 57%
    16:00 +34°C° 0.4 mm 1 mps 753 mmHg 60%
    17:00 +32°C° 0.3 mm 1 mps 753 mmHg 69%
    18:00 +30°C° 0.3 mm 1 mps 753 mmHg 78%
    19:00 +28°C° 0.3 mm 1 mps 754 mmHg 87%
    20:00 +27°C° 0 mm 1 mps 754 mmHg 88%
    21:00 +27°C° 0 mm 1 mps 755 mmHg 90%
    22:00 +26°C° 0 mm 1 mps 756 mmHg 92%
    23:00 +26°C° 0 mm 1 mps 755 mmHg 93%

    Day after tomorrow, 21 August, Monday

    Time Temperature Precipitation Wind Pressure Humidity
    00:00 +26°C° 0 mm 1 mps 755 mmHg 93%
    01:00 +26°C° 0 mm 1 mps 755 mmHg 94%
    02:00 +25°C° 0 mm 1 mps 755 mmHg 95%
    03:00 +25°C° 0 mm 1 mps 754 mmHg 96%
    04:00 +25°C° 0 mm 1 mps 754 mmHg 97%
    05:00 +25°C° 0 mm 1 mps 754 mmHg 96%
    06:00 +26°C° 0 mm 1 mps 755 mmHg 95%
    07:00 +26°C° 0 mm 1 mps 755 mmHg 94%
    08:00 +28°C° 0.2 mm 1 mps 756 mmHg 85%
    09:00 +30°C° 0.2 mm 1 mps 756 mmHg 76%
    10:00 +32°C° 0.2 mm 2 mps 756 mmHg 67%
    11:00 +33°C° 0.4 mm 1 mps 755 mmHg 63%
    12:00 +33°C° 0.4 mm 1 mps 754 mmHg 59%
    13:00 +34°C° 0.4 mm 1 mps 754 mmHg 55%
    14:00 +34°C° 0.2 mm 1 mps 753 mmHg 56%
    15:00 +34°C° 0.2 mm 1 mps 753 mmHg 57%
    16:00 +33°C° 0.2 mm 1 mps 752 mmHg 58%
    17:00 +31°C° 0.9 mm 1 mps 753 mmHg 69%
    18:00 +29°C° 0.9 mm 1 mps 753 mmHg 80%
    19:00 +27°C° 0.9 mm 1 mps 754 mmHg 90%
    20:00 +27°C° 0 mm 1 mps 754 mmHg 92%
    21:00 +26°C° 0 mm 1 mps 755 mmHg 93%
    22:00 +26°C° 0 mm 1 mps 756 mmHg 94%
    23:00 +26°C° 0 mm 1 mps 755 mmHg 95%

    22 August, Tuesday

    Time Temperature Precipitation Wind Pressure Humidity
    00:00 +25°C° 0 mm 1 mps 755 mmHg 95%
    01:00 +25°C° 0 mm 1 mps 755 mmHg 96%
    02:00 +25°C° 0.1 mm 1 mps 755 mmHg 96%
    03:00 +25°C° 0.1 mm 1 mps 754 mmHg 97%
    04:00 +25°C° 0.1 mm 1 mps 754 mmHg 97%
    05:00 +25°C° 0 mm 1 mps 755 mmHg 96%
    06:00 +25°C° 0 mm 1 mps 755 mmHg 95%
    07:00 +25°C° 0 mm 1 mps 756 mmHg 94%
    08:00 +27°C° 0 mm 1 mps 756 mmHg 83%
    09:00 +30°C° 0 mm 2 mps 756 mmHg 72%
    10:00 +32°C° 0 mm 2 mps 756 mmHg 61%
    11:00 +34°C° 0 mm 2 mps 756 mmHg 54%
    12:00 +36°C° 0 mm 2 mps 755 mmHg 47%
    13:00 +37°C° 0 mm 2 mps 754 mmHg 40%
    14:00 +37°C° 0 mm 2 mps 753 mmHg 41%
    15:00 +37°C° 0 mm 2 mps 753 mmHg 41%
    16:00 +36°C° 0 mm 2 mps 752 mmHg 42%
    17:00 +33°C° 0 mm 1 mps 753 mmHg 50%
    18:00 +31°C° 0 mm 1 mps 753 mmHg 59%
    19:00 +29°C° 0 mm 1 mps 754 mmHg 67%
    20:00 +28°C° 0 mm 1 mps 754 mmHg 70%
    21:00 +28°C° 0 mm 1 mps 755 mmHg 72%
    22:00 +27°C° 0 mm 1 mps 756 mmHg 75%
    23:00 +27°C° 0 mm 1 mps 756 mmHg 77%

    23 August, Wednesday

    Time Temperature Precipitation Wind Pressure Humidity
    00:00 +26°C° 0 mm 1 mps 755 mmHg 78%
    01:00 +26°C° 0 mm 1 mps 755 mmHg 80%
    02:00 +25°C° 0 mm 1 mps 755 mmHg 83%
    03:00 +25°C° 0 mm 1 mps 755 mmHg 86%
    04:00 +24°C° 0 mm 1 mps 754 mmHg 89%
    05:00 +25°C° 0 mm 1 mps 755 mmHg 89%
    06:00 +25°C° 0 mm 1 mps 756 mmHg 89%
    07:00 +25°C° 0 mm 1 mps 756 mmHg 90%
    08:00 +27°C° 0 mm 2 mps 756 mmHg 79%
    09:00 +30°C° 0 mm 2 mps 756 mmHg 69%
    10:00 +32°C° 0 mm 2 mps 757 mmHg 59%
    11:00 +34°C° 0 mm 2 mps 756 mmHg 55%
    12:00 +35°C° 0 mm 2 mps 755 mmHg 50%
    13:00 +37°C° 0 mm 2 mps 754 mmHg 45%
    14:00 +37°C° 0 mm 2 mps 753 mmHg 46%
    15:00 +36°C° 0 mm 2 mps 753 mmHg 47%
    16:00 +36°C° 0 mm 2 mps 752 mmHg 48%
    17:00 +34°C° 0 mm 2 mps 753 mmHg 56%
    18:00 +31°C° 0 mm 1 mps 754 mmHg 65%
    19:00 +29°C° 0 mm 1 mps 754 mmHg 73%
    20:00 +29°C° 0 mm 1 mps 755 mmHg 75%
    21:00 +28°C° 0 mm 1 mps 755 mmHg 77%
    22:00 +28°C° 0 mm 1 mps 755 mmHg 79%
    23:00 +27°C° 0 mm 1 mps 755 mmHg 81%

    24 August, Thursday

    Time Temperature Precipitation Wind Pressure Humidity
    00:00 +27°C° 0 mm 1 mps 755 mmHg 83%
    01:00 +26°C° 0 mm 1 mps 755 mmHg 84%
    02:00 +26°C° 0 mm 1 mps 755 mmHg 87%
    03:00 +25°C° 0 mm 1 mps 755 mmHg 90%
    04:00 +25°C° 0 mm 1 mps 755 mmHg 92%
    05:00 +25°C° 0 mm 1 mps 755 mmHg 92%
    06:00 +25°C° 0 mm 1 mps 756 mmHg 91%
    07:00 +26°C° 0 mm 1 mps 756 mmHg 91%
    08:00 +28°C° 0 mm 2 mps 756 mmHg 81%
    09:00 +30°C° 0 mm 2 mps 756 mmHg 72%
    10:00 +32°C° 0 mm 2 mps 756 mmHg 62%
    11:00 +34°C° 0 mm 2 mps 755 mmHg 57%
    12:00 +35°C° 0 mm 2 mps 755 mmHg 53%
    13:00 +37°C° 0 mm 2 mps 754 mmHg 48%
    14:00 +37°C° 0 mm 2 mps 753 mmHg 49%
    15:00 +36°C° 0 mm 2 mps 753 mmHg 49%
    16:00 +36°C° 0 mm 2 mps 752 mmHg 49%
    17:00 +33°C° 0 mm 1 mps 753 mmHg 57%
    18:00 +31°C° 0 mm 1 mps 753 mmHg 65%
    19:00 +29°C° 0 mm 1 mps 754 mmHg 73%
    20:00 +29°C° 0 mm 1 mps 754 mmHg 76%
    21:00 +28°C° 0 mm 1 mps 754 mmHg 79%
    22:00 +28°C° 0 mm 1 mps 755 mmHg 82%
    23:00 +27°C° 0 mm 1 mps 755 mmHg 85%
    Show more